Time,TemperatureF,DewpointF,PressureIn,WindDirection,WindDirectionDegrees,WindSpeedMPH,WindSpeedGustMPH,Humidity,HourlyPrecipIn,Conditions,Clouds,dailyrainin,SolarRadiationWatts/m^2,SoftwareType,DateUTC
2013-02-03 00:05:00,18.4,15.7,30.09,SW,232,0.0,0.0,89,0.00,,,0.00,32767.00,ALWS 1.0-beta,2013-02-03 05:05:00,
2013-02-03 00:10:00,18.1,15.7,30.09,SW,232,0.0,0.0,90,0.00,,,0.00,32767.00,ALWS 1.0-beta,2013-02-03 05:10:00,
2013-02-03 00:15:00,17.7,15.3,30.09,SW,232,0.0,0.0,90,0.00,,,0.00,32767.00,ALWS 1.0-beta,2013-02-03 05:15:00,
2013-02-03 00:20:00,17.6,15.2,30.08,SW,232,0.0,0.0,90,0.00,,,0.00,32767.00,ALWS 1.0-beta,2013-02-03 05:20:00,
2013-02-03 00:25:00,17.6,15.2,30.08,SW,232,0.0,0.0,90,0.00,,,0.00,32767.00,ALWS 1.0-beta,2013-02-03 05:25:00,
2013-02-03 00:30:00,17.3,14.9,30.08,SW,232,0.0,0.0,90,0.00,,,0.00,32767.00,ALWS 1.0-beta,2013-02-03 05:30:00,
2013-02-03 00:35:00,17.1,14.9,30.08,SW,232,0.0,0.0,91,0.00,,,0.00,32767.00,ALWS 1.0-beta,2013-02-03 05:35:00,
2013-02-03 00:40:00,16.9,14.7,30.07,SW,232,0.0,0.0,91,0.00,,,0.00,32767.00,ALWS 1.0-beta,2013-02-03 05:40:00,
2013-02-03 00:45:00,16.7,14.5,30.07,SW,232,0.0,0.0,91,0.00,,,0.00,32767.00,ALWS 1.0-beta,2013-02-03 05:45:00,
2013-02-03 00:50:00,16.6,14.4,30.07,SW,232,0.0,0.0,91,0.00,,,0.00,32767.00,ALWS 1.0-beta,2013-02-03 05:50:00,
2013-02-03 00:55:00,16.5,14.3,30.06,SW,232,0.0,0.0,91,0.00,,,0.00,32767.00,ALWS 1.0-beta,2013-02-03 05:55:00,
2013-02-03 01:00:00,16.5,14.3,30.07,SW,232,0.0,0.0,91,0.00,,,0.00,32767.00,ALWS 1.0-beta,2013-02-03 06:00:00,
2013-02-03 01:05:00,16.4,14.2,30.07,SW,232,0.0,0.0,91,0.00,,,0.00,32767.00,ALWS 1.0-beta,2013-02-03 06:05:00,
2013-02-03 01:10:00,16.3,14.1,30.07,SW,232,0.0,0.0,91,0.00,,,0.00,32767.00,ALWS 1.0-beta,2013-02-03 06:10:00,
2013-02-03 01:15:00,16.1,13.9,30.07,SW,232,0.0,0.0,91,0.00,,,0.00,32767.00,ALWS 1.0-beta,2013-02-03 06:15:00,
2013-02-03 01:20:00,16.0,13.8,30.06,SW,232,0.0,0.0,91,0.00,,,0.00,32767.00,ALWS 1.0-beta,2013-02-03 06:20:00,
2013-02-03 01:25:00,15.9,13.7,30.06,SW,232,0.0,0.0,91,0.00,,,0.00,32767.00,ALWS 1.0-beta,2013-02-03 06:25:00,
2013-02-03 01:30:00,15.8,13.6,30.06,SW,232,0.0,0.0,91,0.00,,,0.00,32767.00,ALWS 1.0-beta,2013-02-03 06:30:00,
2013-02-03 01:35:00,15.4,13.2,30.06,SW,232,0.0,0.0,91,0.00,,,0.00,32767.00,ALWS 1.0-beta,2013-02-03 06:35:00,
2013-02-03 01:40:00,15.1,12.9,30.06,SW,232,0.0,0.0,91,0.00,,,0.00,32767.00,ALWS 1.0-beta,2013-02-03 06:40:00,
2013-02-03 01:45:00,15.0,12.9,30.06,SW,232,0.0,0.0,91,0.00,,,0.00,32767.00,ALWS 1.0-beta,2013-02-03 06:45:00,
2013-02-03 01:50:00,15.0,12.9,30.06,SW,232,0.0,0.0,91,0.00,,,0.00,32767.00,ALWS 1.0-beta,2013-02-03 06:50:00,
2013-02-03 01:55:00,15.0,12.9,30.06,SW,232,0.0,0.0,91,0.00,,,0.00,32767.00,ALWS 1.0-beta,2013-02-03 06:55:00,
2013-02-03 02:00:00,15.1,12.9,30.06,SW,232,0.0,0.0,91,0.00,,,0.00,32767.00,ALWS 1.0-beta,2013-02-03 07:00:00,
2013-02-03 02:05:00,15.1,12.9,30.05,SW,232,0.0,0.0,91,0.00,,,0.00,32767.00,ALWS 1.0-beta,2013-02-03 07:05:00,
2013-02-03 02:10:00,15.0,12.9,30.05,SW,232,0.0,0.0,91,0.00,,,0.00,32767.00,ALWS 1.0-beta,2013-02-03 07:10:00,
2013-02-03 02:15:00,15.0,12.9,30.05,SW,232,0.0,0.0,91,0.00,,,0.00,32767.00,ALWS 1.0-beta,2013-02-03 07:15:00,
2013-02-03 02:20:00,14.8,12.6,30.05,SW,232,0.0,0.0,91,0.00,,,0.00,32767.00,ALWS 1.0-beta,2013-02-03 07:20:00,
2013-02-03 02:25:00,14.6,12.2,30.05,SW,232,0.0,0.0,90,0.00,,,0.00,32767.00,ALWS 1.0-beta,2013-02-03 07:25:00,
2013-02-03 02:30:00,14.6,12.2,30.05,SW,232,0.0,0.0,90,0.00,,,0.00,32767.00,ALWS 1.0-beta,2013-02-03 07:30:00,
2013-02-03 02:35:00,14.6,12.2,30.05,SW,232,0.0,0.0,90,0.00,,,0.00,32767.00,ALWS 1.0-beta,2013-02-03 07:35:00,
2013-02-03 02:40:00,14.6,12.2,30.04,SW,232,0.0,0.0,90,0.00,,,0.00,32767.00,ALWS 1.0-beta,2013-02-03 07:40:00,
2013-02-03 02:45:00,14.5,12.1,30.04,SW,232,0.0,0.0,90,0.00,,,0.00,32767.00,ALWS 1.0-beta,2013-02-03 07:45:00,
2013-02-03 02:50:00,14.4,12.0,30.04,SW,232,0.0,0.0,90,0.00,,,0.00,32767.00,ALWS 1.0-beta,2013-02-03 07:50:00,
2013-02-03 02:55:00,14.3,11.9,30.04,SW,232,0.0,0.0,90,0.00,,,0.00,32767.00,ALWS 1.0-beta,2013-02-03 07:55:00,
2013-02-03 03:00:00,14.2,11.8,30.04,SW,232,0.0,0.0,90,0.00,,,0.00,32767.00,ALWS 1.0-beta,2013-02-03 08:00:00,
2013-02-03 03:05:00,14.1,11.7,30.04,SW,232,0.0,0.0,90,0.00,,,0.00,32767.00,ALWS 1.0-beta,2013-02-03 08:05:00,
2013-02-03 03:10:00,14.2,11.8,30.03,SW,232,0.0,0.0,90,0.00,,,0.00,32767.00,ALWS 1.0-beta,2013-02-03 08:10:00,
2013-02-03 03:15:00,14.2,11.8,30.03,SW,232,0.0,0.0,90,0.00,,,0.00,32767.00,ALWS 1.0-beta,2013-02-03 08:15:00,
2013-02-03 03:20:00,14.1,11.7,30.03,SW,232,0.0,0.0,90,0.00,,,0.00,32767.00,ALWS 1.0-beta,2013-02-03 08:20:00,
2013-02-03 03:25:00,14.1,11.7,30.03,SW,232,0.0,0.0,90,0.00,,,0.00,32767.00,ALWS 1.0-beta,2013-02-03 08:25:00,
2013-02-03 03:30:00,14.3,11.9,30.02,SW,232,0.0,0.0,90,0.00,,,0.00,32767.00,ALWS 1.0-beta,2013-02-03 08:30:00,
2013-02-03 03:35:00,14.5,12.1,30.02,SW,232,0.0,0.0,90,0.00,,,0.00,32767.00,ALWS 1.0-beta,2013-02-03 08:35:00,
2013-02-03 03:40:00,14.7,12.6,30.02,SW,232,0.0,0.0,91,0.00,,,0.00,32767.00,ALWS 1.0-beta,2013-02-03 08:40:00,
2013-02-03 03:45:00,14.8,12.4,30.02,SW,232,0.0,0.0,90,0.00,,,0.00,32767.00,ALWS 1.0-beta,2013-02-03 08:45:00,
2013-02-03 03:50:00,14.8,12.4,30.02,SW,232,0.0,0.0,90,0.00,,,0.00,32767.00,ALWS 1.0-beta,2013-02-03 08:50:00,
2013-02-03 03:55:00,14.9,12.5,30.01,SW,232,0.0,0.0,90,0.00,,,0.00,32767.00,ALWS 1.0-beta,2013-02-03 08:55:00,
2013-02-03 04:00:00,14.9,12.5,30.01,SW,232,0.0,0.0,90,0.00,,,0.00,32767.00,ALWS 1.0-beta,2013-02-03 09:00:00,
2013-02-03 04:05:00,14.7,12.3,30.01,SW,232,0.0,0.0,90,0.00,,,0.00,32767.00,ALWS 1.0-beta,2013-02-03 09:05:00,
2013-02-03 04:10:00,14.1,11.5,30.01,SW,232,0.0,0.0,89,0.00,,,0.00,32767.00,ALWS 1.0-beta,2013-02-03 09:10:00,
2013-02-03 04:15:00,13.9,11.5,30.01,SW,232,0.0,0.0,90,0.00,,,0.00,32767.00,ALWS 1.0-beta,2013-02-03 09:15:00,
2013-02-03 04:20:00,13.5,10.9,30.01,SW,232,0.0,0.0,89,0.00,,,0.00,32767.00,ALWS 1.0-beta,2013-02-03 09:20:00,
2013-02-03 04:25:00,13.0,10.4,30.00,SW,232,0.0,0.0,89,0.00,,,0.00,32767.00,ALWS 1.0-beta,2013-02-03 09:25:00,
2013-02-03 04:30:00,12.7,10.3,30.00,SW,232,0.0,0.0,90,0.00,,,0.00,32767.00,ALWS 1.0-beta,2013-02-03 09:30:00,
2013-02-03 04:35:00,12.8,10.4,30.00,SW,232,0.0,0.0,90,0.00,,,0.00,32767.00,ALWS 1.0-beta,2013-02-03 09:35:00,
2013-02-03 04:40:00,12.8,10.4,30.00,SW,232,0.0,0.0,90,0.00,,,0.00,32767.00,ALWS 1.0-beta,2013-02-03 09:40:00,
2013-02-03 04:45:00,12.7,10.3,30.00,SW,232,0.0,0.0,90,0.00,,,0.00,32767.00,ALWS 1.0-beta,2013-02-03 09:45:00,
2013-02-03 04:50:00,12.4,10.0,29.99,SW,232,0.0,0.0,90,0.00,,,0.00,32767.00,ALWS 1.0-beta,2013-02-03 09:50:00,
2013-02-03 04:55:00,12.4,10.0,29.99,SW,232,0.0,0.0,90,0.00,,,0.00,32767.00,ALWS 1.0-beta,2013-02-03 09:55:00,
2013-02-03 05:00:00,12.4,10.0,29.99,SW,232,0.0,0.0,90,0.00,,,0.00,32767.00,ALWS 1.0-beta,2013-02-03 10:00:00,
2013-02-03 05:05:00,12.2,9.8,29.99,SW,232,0.0,0.0,90,0.00,,,0.00,32767.00,ALWS 1.0-beta,2013-02-03 10:05:00,
2013-02-03 05:10:00,12.0,9.6,29.99,SW,232,0.0,0.0,90,0.00,,,0.00,32767.00,ALWS 1.0-beta,2013-02-03 10:10:00,
2013-02-03 05:15:00,11.7,9.3,29.99,SW,232,0.0,0.0,90,0.00,,,0.00,32767.00,ALWS 1.0-beta,2013-02-03 10:15:00,
2013-02-03 05:20:00,11.4,8.8,29.99,SW,232,0.0,0.0,89,0.00,,,0.00,32767.00,ALWS 1.0-beta,2013-02-03 10:20:00,
2013-02-03 05:25:00,10.9,8.3,29.99,SW,232,0.0,0.0,89,0.00,,,0.00,32767.00,ALWS 1.0-beta,2013-02-03 10:25:00,
2013-02-03 05:30:00,10.6,8.0,29.99,SW,232,0.0,0.0,89,0.00,,,0.00,32767.00,ALWS 1.0-beta,2013-02-03 10:30:00,
2013-02-03 05:35:00,10.5,7.9,29.99,SW,232,0.0,0.0,89,0.00,,,0.00,32767.00,ALWS 1.0-beta,2013-02-03 10:35:00,
2013-02-03 05:40:00,10.5,7.9,29.99,SW,232,0.0,0.0,89,0.00,,,0.00,32767.00,ALWS 1.0-beta,2013-02-03 10:40:00,
2013-02-03 05:45:00,10.5,7.9,29.99,SW,232,0.0,0.0,89,0.00,,,0.00,32767.00,ALWS 1.0-beta,2013-02-03 10:45:00,
2013-02-03 05:50:00,10.5,7.9,29.99,SW,232,0.0,0.0,89,0.00,,,0.00,32767.00,ALWS 1.0-beta,2013-02-03 10:50:00,
2013-02-03 05:55:00,10.8,8.2,29.99,SW,232,0.0,0.0,89,0.00,,,0.00,32767.00,ALWS 1.0-beta,2013-02-03 10:55:00,
2013-02-03 06:00:00,10.7,8.1,29.99,SW,232,0.0,0.0,89,0.00,,,0.00,32767.00,ALWS 1.0-beta,2013-02-03 11:00:00,
2013-02-03 06:05:00,10.4,7.8,29.99,SW,232,0.0,0.0,89,0.00,,,0.00,32767.00,ALWS 1.0-beta,2013-02-03 11:05:00,
2013-02-03 06:10:00,10.4,7.8,29.99,SW,232,0.0,0.0,89,0.00,,,0.00,32767.00,ALWS 1.0-beta,2013-02-03 11:10:00,
2013-02-03 06:15:00,10.3,7.7,29.99,SW,232,0.0,0.0,89,0.00,,,0.00,32767.00,ALWS 1.0-beta,2013-02-03 11:15:00,
2013-02-03 06:20:00,10.4,7.8,29.99,SW,232,0.0,0.0,89,0.00,,,0.00,32767.00,ALWS 1.0-beta,2013-02-03 11:20:00,
2013-02-03 06:25:00,10.5,7.9,29.99,SW,232,0.0,0.0,89,0.00,,,0.00,32767.00,ALWS 1.0-beta,2013-02-03 11:25:00,
2013-02-03 06:30:00,10.4,7.8,29.99,SW,232,0.0,0.0,89,0.00,,,0.00,32767.00,ALWS 1.0-beta,2013-02-03 11:30:00,
2013-02-03 06:35:00,10.4,7.8,29.99,SW,232,0.0,0.0,89,0.00,,,0.00,32767.00,ALWS 1.0-beta,2013-02-03 11:35:00,
2013-02-03 06:40:00,10.4,7.8,29.99,SW,232,0.0,0.0,89,0.00,,,0.00,32767.00,ALWS 1.0-beta,2013-02-03 11:40:00,
2013-02-03 06:45:00,10.6,8.0,29.99,SW,232,0.0,0.0,89,0.00,,,0.00,32767.00,ALWS 1.0-beta,2013-02-03 11:45:00,
2013-02-03 06:50:00,10.9,8.3,29.99,SW,232,0.0,0.0,89,0.00,,,0.00,32767.00,ALWS 1.0-beta,2013-02-03 11:50:00,
2013-02-03 06:55:00,10.9,8.3,29.99,SW,232,0.0,0.0,89,0.00,,,0.00,32767.00,ALWS 1.0-beta,2013-02-03 11:55:00,
2013-02-03 07:00:00,10.9,8.3,30.00,SW,232,0.0,0.0,89,0.00,,,0.00,32767.00,ALWS 1.0-beta,2013-02-03 12:00:00,
2013-02-03 07:05:00,10.9,8.3,30.00,SW,232,0.0,0.0,89,0.00,,,0.00,32767.00,ALWS 1.0-beta,2013-02-03 12:05:00,
2013-02-03 07:10:00,11.0,8.4,29.99,SW,232,0.0,0.0,89,0.00,,,0.00,32767.00,ALWS 1.0-beta,2013-02-03 12:10:00,
2013-02-03 07:15:00,10.8,8.2,29.99,SW,232,0.0,0.0,89,0.00,,,0.00,32767.00,ALWS 1.0-beta,2013-02-03 12:15:00,
2013-02-03 07:20:00,10.7,8.1,30.00,SW,232,0.0,0.0,89,0.00,,,0.00,32767.00,ALWS 1.0-beta,2013-02-03 12:20:00,
2013-02-03 07:25:00,10.5,7.9,30.00,SW,232,0.0,0.0,89,0.00,,,0.00,32767.00,ALWS 1.0-beta,2013-02-03 12:25:00,
2013-02-03 07:30:00,10.7,8.1,30.00,SW,232,0.0,0.0,89,0.00,,,0.00,32767.00,ALWS 1.0-beta,2013-02-03 12:30:00,
2013-02-03 07:35:00,10.9,8.3,30.00,SW,232,0.0,0.0,89,0.00,,,0.00,32767.00,ALWS 1.0-beta,2013-02-03 12:35:00,
2013-02-03 07:40:00,11.4,8.8,30.00,SW,232,0.0,0.0,89,0.00,,,0.00,32767.00,ALWS 1.0-beta,2013-02-03 12:40:00,
2013-02-03 07:45:00,11.9,9.5,30.01,SW,232,0.0,0.0,90,0.00,,,0.00,32767.00,ALWS 1.0-beta,2013-02-03 12:45:00,
2013-02-03 07:50:00,12.3,9.9,30.01,SW,232,0.0,0.0,90,0.00,,,0.00,32767.00,ALWS 1.0-beta,2013-02-03 12:50:00,
2013-02-03 07:55:00,12.6,10.0,30.01,SW,232,0.0,0.0,89,0.00,,,0.00,32767.00,ALWS 1.0-beta,2013-02-03 12:55:00,
2013-02-03 08:00:00,12.9,10.3,30.01,SW,232,0.0,0.0,89,0.00,,,0.00,32767.00,ALWS 1.0-beta,2013-02-03 13:00:00,
2013-02-03 08:05:00,13.2,10.6,30.01,SW,232,0.0,0.0,89,0.00,,,0.00,32767.00,ALWS 1.0-beta,2013-02-03 13:05:00,
2013-02-03 08:10:00,13.5,11.1,30.01,SW,232,0.0,0.0,90,0.00,,,0.00,32767.00,ALWS 1.0-beta,2013-02-03 13:10:00,
2013-02-03 08:15:00,13.9,11.5,30.01,SW,232,0.0,0.0,90,0.00,,,0.00,32767.00,ALWS 1.0-beta,2013-02-03 13:15:00,
2013-02-03 08:20:00,14.5,12.1,30.01,SW,232,0.0,0.0,90,0.00,,,0.00,32767.00,ALWS 1.0-beta,2013-02-03 13:20:00,
2013-02-03 08:25:00,15.0,12.9,30.01,SW,232,0.0,1.0,91,0.00,,,0.00,32767.00,ALWS 1.0-beta,2013-02-03 13:25:00,
2013-02-03 08:30:00,15.3,13.1,30.01,SW,232,0.0,1.0,91,0.00,,,0.00,32767.00,ALWS 1.0-beta,2013-02-03 13:30:00,
2013-02-03 08:35:00,15.5,13.4,30.01,SW,232,0.0,0.0,91,0.00,,,0.00,32767.00,ALWS 1.0-beta,2013-02-03 13:35:00,
2013-02-03 08:40:00,15.7,13.5,30.01,SW,232,0.0,2.0,91,0.00,,,0.00,32767.00,ALWS 1.0-beta,2013-02-03 13:40:00,
2013-02-03 08:46:00,15.9,13.7,30.01,SW,232,0.0,0.0,91,0.00,,,0.00,32767.00,ALWS 1.0-beta,2013-02-03 13:46:00,
2013-02-03 08:51:00,16.1,13.9,30.01,SW,232,0.0,0.0,91,0.00,,,0.00,32767.00,ALWS 1.0-beta,2013-02-03 13:51:00,
2013-02-03 08:56:00,16.3,14.1,30.01,SW,232,0.0,0.0,91,0.00,,,0.00,32767.00,ALWS 1.0-beta,2013-02-03 13:56:00,
2013-02-03 09:01:00,16.7,14.8,30.01,SW,232,0.0,0.0,92,0.00,,,0.00,32767.00,ALWS 1.0-beta,2013-02-03 14:01:00,
2013-02-03 09:06:00,17.0,14.8,30.00,ENE,64,0.0,0.0,91,0.00,,,0.00,32767.00,ALWS 1.0-beta,2013-02-03 14:06:00,
2013-02-03 09:11:00,17.1,14.9,30.00,ENE,64,0.0,0.0,91,0.00,,,0.00,32767.00,ALWS 1.0-beta,2013-02-03 14:11:00,
2013-02-03 09:16:00,17.2,15.0,30.00,ENE,64,0.0,0.0,91,0.00,,,0.00,32767.00,ALWS 1.0-beta,2013-02-03 14:16:00,
2013-02-03 09:21:00,17.5,15.3,30.00,ENE,64,0.0,0.0,91,0.00,,,0.00,32767.00,ALWS 1.0-beta,2013-02-03 14:21:00,
2013-02-03 09:26:00,17.7,15.5,30.00,ENE,65,0.0,0.0,91,0.00,,,0.00,32767.00,ALWS 1.0-beta,2013-02-03 14:26:00,
2013-02-03 09:31:00,18.4,16.2,30.00,ENE,65,0.0,0.0,91,0.00,,,0.00,32767.00,ALWS 1.0-beta,2013-02-03 14:31:00,
2013-02-03 09:36:00,18.9,16.7,30.00,ENE,64,0.0,0.0,91,0.00,,,0.00,32767.00,ALWS 1.0-beta,2013-02-03 14:36:00,
2013-02-03 09:41:00,19.1,16.7,30.00,ENE,64,0.0,0.0,90,0.00,,,0.00,32767.00,ALWS 1.0-beta,2013-02-03 14:41:00,
2013-02-03 09:46:00,19.0,16.6,30.00,ENE,65,0.0,0.0,90,0.00,,,0.00,32767.00,ALWS 1.0-beta,2013-02-03 14:46:00,
2013-02-03 09:51:00,19.4,17.0,30.00,ENE,74,0.0,0.0,90,0.00,,,0.00,32767.00,ALWS 1.0-beta,2013-02-03 14:51:00,
2013-02-03 09:56:00,19.6,16.9,30.00,ENE,74,0.0,1.0,89,0.00,,,0.00,32767.00,ALWS 1.0-beta,2013-02-03 14:56:00,
2013-02-03 10:01:00,19.7,16.7,30.00,ENE,78,0.0,0.0,88,0.00,,,0.00,32767.00,ALWS 1.0-beta,2013-02-03 15:01:00,
2013-02-03 10:06:00,20.0,17.0,29.99,East,96,0.0,2.0,88,0.00,,,0.00,32767.00,ALWS 1.0-beta,2013-02-03 15:06:00,
2013-02-03 10:11:00,20.1,16.9,29.99,East,96,0.0,0.0,87,0.00,,,0.00,32767.00,ALWS 1.0-beta,2013-02-03 15:11:00,
2013-02-03 10:16:00,20.4,16.9,29.99,East,96,0.0,0.0,86,0.00,,,0.00,32767.00,ALWS 1.0-beta,2013-02-03 15:16:00,
2013-02-03 10:21:00,20.8,17.3,29.99,East,96,0.0,0.0,86,0.00,,,0.00,32767.00,ALWS 1.0-beta,2013-02-03 15:21:00,
2013-02-03 10:26:00,21.1,17.3,29.99,NE,48,0.0,1.0,85,0.00,,,0.00,32767.00,ALWS 1.0-beta,2013-02-03 15:26:00,
2013-02-03 10:31:00,21.1,16.8,29.98,East,101,0.0,0.0,83,0.00,,,0.01,32767.00,ALWS 1.0-beta,2013-02-03 15:31:00,
2013-02-03 10:36:00,21.4,17.3,29.98,ENE,59,2.0,2.0,84,0.00,,,0.01,32767.00,ALWS 1.0-beta,2013-02-03 15:36:00,
2013-02-03 10:41:00,21.4,16.8,29.98,ENE,59,0.0,0.0,82,0.00,,,0.01,32767.00,ALWS 1.0-beta,2013-02-03 15:41:00,
2013-02-03 10:46:00,21.5,16.9,29.98,ENE,59,0.0,1.0,82,0.00,,,0.01,32767.00,ALWS 1.0-beta,2013-02-03 15:46:00,
2013-02-03 10:51:00,21.6,16.7,29.98,East,85,0.0,0.0,81,0.00,,,0.01,32767.00,ALWS 1.0-beta,2013-02-03 15:51:00,
2013-02-03 10:56:00,22.2,17.3,29.97,East,84,0.0,0.0,81,0.00,,,0.01,32767.00,ALWS 1.0-beta,2013-02-03 15:56:00,
2013-02-03 11:01:00,22.6,17.1,29.97,East,85,0.0,0.0,79,0.00,,,0.01,32767.00,ALWS 1.0-beta,2013-02-03 16:01:00,
2013-02-03 11:06:00,22.4,16.3,29.97,East,88,0.0,1.0,77,0.00,,,0.02,32767.00,ALWS 1.0-beta,2013-02-03 16:06:00,
2013-02-03 11:11:00,22.6,16.8,29.96,East,97,0.0,0.0,78,0.00,,,0.02,32767.00,ALWS 1.0-beta,2013-02-03 16:11:00,
2013-02-03 11:16:00,22.7,16.6,29.96,South,190,0.0,0.0,77,0.00,,,0.02,32767.00,ALWS 1.0-beta,2013-02-03 16:16:00,
2013-02-03 11:21:00,22.5,16.4,29.95,SE,132,1.0,1.0,77,0.00,,,0.02,32767.00,ALWS 1.0-beta,2013-02-03 16:21:00,
2013-02-03 11:26:00,22.4,15.7,29.95,ENE,78,0.0,0.0,75,0.00,,,0.02,32767.00,ALWS 1.0-beta,2013-02-03 16:26:00,
2013-02-03 11:31:00,22.7,16.0,29.95,SW,219,0.0,0.0,75,0.00,,,0.02,32767.00,ALWS 1.0-beta,2013-02-03 16:31:00,
2013-02-03 11:36:00,23.0,16.0,29.94,South,188,0.0,0.0,74,0.00,,,0.02,32767.00,ALWS 1.0-beta,2013-02-03 16:36:00,
2013-02-03 11:41:00,22.5,15.2,29.94,ESE,114,0.0,0.0,73,0.00,,,0.02,32767.00,ALWS 1.0-beta,2013-02-03 16:41:00,
2013-02-03 11:46:00,22.7,16.0,29.94,ESE,122,0.0,0.0,75,0.00,,,0.02,32767.00,ALWS 1.0-beta,2013-02-03 16:46:00,
2013-02-03 11:51:00,22.9,14.9,29.94,ESE,118,0.0,4.0,71,0.00,,,0.02,32767.00,ALWS 1.0-beta,2013-02-03 16:51:00,
2013-02-03 11:56:00,23.0,15.3,29.93,SE,140,0.0,1.0,72,0.00,,,0.02,32767.00,ALWS 1.0-beta,2013-02-03 16:56:00,
2013-02-03 12:01:00,23.1,15.4,29.93,SE,142,0.0,0.0,72,0.00,,,0.02,32767.00,ALWS 1.0-beta,2013-02-03 17:01:00,
2013-02-03 12:06:00,23.1,15.4,29.93,West,269,0.0,1.0,72,0.00,,,0.02,32767.00,ALWS 1.0-beta,2013-02-03 17:06:00,
2013-02-03 12:11:00,23.7,16.3,29.92,West,268,2.0,2.0,73,0.00,,,0.02,32767.00,ALWS 1.0-beta,2013-02-03 17:11:00,
2013-02-03 12:16:00,23.9,15.9,29.92,WNW,298,4.0,4.0,71,0.00,,,0.03,32767.00,ALWS 1.0-beta,2013-02-03 17:16:00,
2013-02-03 12:21:00,23.9,16.2,29.92,WNW,298,0.0,0.0,72,0.00,,,0.03,32767.00,ALWS 1.0-beta,2013-02-03 17:21:00,
2013-02-03 12:26:00,24.0,15.6,29.91,WNW,298,0.0,0.0,70,0.00,,,0.03,32767.00,ALWS 1.0-beta,2013-02-03 17:26:00,
2013-02-03 12:31:00,24.1,15.1,29.91,WNW,298,0.0,0.0,68,0.00,,,0.03,32767.00,ALWS 1.0-beta,2013-02-03 17:31:00,
2013-02-03 12:36:00,24.5,15.5,29.90,WNW,298,0.0,0.0,68,0.00,,,0.03,32767.00,ALWS 1.0-beta,2013-02-03 17:36:00,
2013-02-03 12:41:00,25.0,16.3,29.90,SSW,205,0.0,0.0,69,0.00,,,0.03,32767.00,ALWS 1.0-beta,2013-02-03 17:41:00,
2013-02-03 12:46:00,24.7,14.3,29.89,South,169,0.0,0.0,64,0.00,,,0.03,32767.00,ALWS 1.0-beta,2013-02-03 17:46:00,
2013-02-03 12:51:00,25.0,14.9,29.89,ESE,123,0.0,0.0,65,0.00,,,0.03,32767.00,ALWS 1.0-beta,2013-02-03 17:51:00,
2013-02-03 12:56:00,24.9,15.2,29.89,SE,130,0.0,0.0,66,0.00,,,0.03,32767.00,ALWS 1.0-beta,2013-02-03 17:56:00,
2013-02-03 13:01:00,25.0,14.6,29.89,SSW,196,0.0,1.0,64,0.00,,,0.03,32767.00,ALWS 1.0-beta,2013-02-03 18:01:00,
2013-02-03 13:06:00,25.3,15.2,29.89,SSW,204,0.0,0.0,65,0.00,,,0.03,32767.00,ALWS 1.0-beta,2013-02-03 18:06:00,
2013-02-03 13:11:00,25.4,15.6,29.88,SW,233,4.0,4.0,66,0.00,,,0.03,32767.00,ALWS 1.0-beta,2013-02-03 18:11:00,
2013-02-03 13:16:00,25.7,15.2,29.88,WSW,246,0.0,0.0,64,0.00,,,0.03,32767.00,ALWS 1.0-beta,2013-02-03 18:16:00,
2013-02-03 13:21:00,26.4,15.9,29.88,SE,135,5.0,5.0,64,0.00,,,0.03,32767.00,ALWS 1.0-beta,2013-02-03 18:21:00,
2013-02-03 13:26:00,26.4,15.9,29.87,WSW,246,0.0,0.0,64,0.00,,,0.03,32767.00,ALWS 1.0-beta,2013-02-03 18:26:00,
2013-02-03 13:31:00,26.5,16.3,29.87,West,276,2.0,2.0,65,0.00,,,0.03,32767.00,ALWS 1.0-beta,2013-02-03 18:31:00,
2013-02-03 13:36:00,26.0,15.5,29.87,West,275,0.0,0.0,64,0.00,,,0.03,32767.00,ALWS 1.0-beta,2013-02-03 18:36:00,
2013-02-03 13:41:00,26.2,15.3,29.87,West,266,2.0,2.0,63,0.00,,,0.03,32767.00,ALWS 1.0-beta,2013-02-03 18:41:00,
2013-02-03 13:46:00,26.2,15.3,29.86,West,266,0.0,0.0,63,0.00,,,0.03,32767.00,ALWS 1.0-beta,2013-02-03 18:46:00,
2013-02-03 13:51:00,26.4,16.2,29.86,West,265,0.0,0.0,65,0.00,,,0.03,32767.00,ALWS 1.0-beta,2013-02-03 18:51:00,
2013-02-03 13:56:00,26.8,15.9,29.86,SSW,196,0.0,1.0,63,0.00,,,0.03,32767.00,ALWS 1.0-beta,2013-02-03 18:56:00,
2013-02-03 14:01:00,26.9,16.4,29.85,SW,222,1.0,4.0,64,0.00,,,0.03,32767.00,ALWS 1.0-beta,2013-02-03 19:01:00,
2013-02-03 14:06:00,26.9,15.6,29.85,WSW,253,0.0,0.0,62,0.00,,,0.03,32767.00,ALWS 1.0-beta,2013-02-03 19:06:00,
2013-02-03 14:11:00,27.6,17.7,29.85,SSE,161,1.0,4.0,66,0.00,,,0.03,32767.00,ALWS 1.0-beta,2013-02-03 19:11:00,
2013-02-03 14:16:00,27.4,17.9,29.85,SE,128,5.0,5.0,67,0.00,,,0.03,32767.00,ALWS 1.0-beta,2013-02-03 19:16:00,
2013-02-03 14:21:00,28.1,18.9,29.85,WSW,238,0.0,0.0,68,0.00,,,0.03,32767.00,ALWS 1.0-beta,2013-02-03 19:21:00,
2013-02-03 14:26:00,27.7,17.5,29.85,SW,232,0.0,2.0,65,0.00,,,0.03,32767.00,ALWS 1.0-beta,2013-02-03 19:26:00,
2013-02-03 14:31:00,27.2,15.6,29.85,West,277,0.0,0.0,61,0.00,,,0.03,32767.00,ALWS 1.0-beta,2013-02-03 19:31:00,
2013-02-03 14:36:00,27.6,16.7,29.85,SSE,153,3.0,3.0,63,0.00,,,0.03,32767.00,ALWS 1.0-beta,2013-02-03 19:36:00,
2013-02-03 14:41:00,27.6,16.7,29.84,SSE,150,1.0,1.0,63,0.00,,,0.03,32767.00,ALWS 1.0-beta,2013-02-03 19:41:00,
2013-02-03 14:46:00,27.9,17.0,29.84,SW,219,1.0,1.0,63,0.00,,,0.03,32767.00,ALWS 1.0-beta,2013-02-03 19:46:00,
2013-02-03 14:51:00,27.9,17.0,29.84,South,188,0.0,0.0,63,0.00,,,0.03,32767.00,ALWS 1.0-beta,2013-02-03 19:51:00,
2013-02-03 14:56:00,27.4,15.7,29.84,South,176,1.0,1.0,61,0.00,,,0.03,32767.00,ALWS 1.0-beta,2013-02-03 19:56:00,
2013-02-03 15:01:00,27.7,16.8,29.84,SE,138,0.0,6.0,63,0.00,,,0.03,32767.00,ALWS 1.0-beta,2013-02-03 20:01:00,
2013-02-03 15:06:00,28.3,17.3,29.84,SW,235,0.0,5.0,63,0.00,,,0.03,32767.00,ALWS 1.0-beta,2013-02-03 20:06:00,
2013-02-03 15:11:00,28.3,16.6,29.84,SW,234,2.0,5.0,61,0.00,,,0.03,32767.00,ALWS 1.0-beta,2013-02-03 20:11:00,
2013-02-03 15:16:00,27.8,16.5,29.84,SW,221,2.0,2.0,62,0.00,,,0.03,32767.00,ALWS 1.0-beta,2013-02-03 20:16:00,
2013-02-03 15:21:00,27.3,16.8,29.84,WSW,244,0.0,2.0,64,0.00,,,0.03,32767.00,ALWS 1.0-beta,2013-02-03 20:21:00,
2013-02-03 15:26:00,27.0,17.2,29.84,WSW,244,0.0,0.0,66,0.00,,,0.03,32767.00,ALWS 1.0-beta,2013-02-03 20:26:00,
2013-02-03 15:31:00,27.1,17.3,29.84,South,188,0.0,0.0,66,0.00,,,0.03,32767.00,ALWS 1.0-beta,2013-02-03 20:31:00,
2013-02-03 15:36:00,27.1,16.6,29.84,South,172,0.0,0.0,64,0.00,,,0.03,32767.00,ALWS 1.0-beta,2013-02-03 20:36:00,
2013-02-03 15:41:00,27.2,17.0,29.84,SSW,213,1.0,1.0,65,0.00,,,0.03,32767.00,ALWS 1.0-beta,2013-02-03 20:41:00,
2013-02-03 15:46:00,27.2,17.7,29.84,South,181,0.0,0.0,67,0.00,,,0.03,32767.00,ALWS 1.0-beta,2013-02-03 20:46:00,
2013-02-03 15:51:00,27.0,16.1,29.84,South,188,0.0,0.0,63,0.00,,,0.03,32767.00,ALWS 1.0-beta,2013-02-03 20:51:00,
2013-02-03 15:56:00,27.0,16.8,29.84,South,188,0.0,0.0,65,0.00,,,0.03,32767.00,ALWS 1.0-beta,2013-02-03 20:56:00,
2013-02-03 16:01:00,26.9,16.4,29.84,SSW,209,0.0,0.0,64,0.00,,,0.03,32767.00,ALWS 1.0-beta,2013-02-03 21:01:00,
2013-02-03 16:06:00,26.9,16.7,29.83,SSW,209,0.0,0.0,65,0.00,,,0.03,32767.00,ALWS 1.0-beta,2013-02-03 21:06:00,
2013-02-03 16:11:00,27.1,15.8,29.83,SW,223,1.0,1.0,62,0.00,,,0.03,32767.00,ALWS 1.0-beta,2013-02-03 21:11:00,
2013-02-03 16:16:00,27.1,16.6,29.83,SW,223,0.0,0.0,64,0.00,,,0.03,32767.00,ALWS 1.0-beta,2013-02-03 21:16:00,
2013-02-03 16:21:00,27.1,15.8,29.83,SW,224,0.0,1.0,62,0.00,,,0.03,32767.00,ALWS 1.0-beta,2013-02-03 21:21:00,
2013-02-03 16:26:00,27.0,16.5,29.83,SW,224,0.0,0.0,64,0.00,,,0.03,32767.00,ALWS 1.0-beta,2013-02-03 21:26:00,
2013-02-03 16:31:00,27.2,15.9,29.83,SW,224,0.0,0.0,62,0.00,,,0.03,32767.00,ALWS 1.0-beta,2013-02-03 21:31:00,
2013-02-03 16:36:00,27.3,16.4,29.83,SW,223,0.0,0.0,63,0.00,,,0.03,32767.00,ALWS 1.0-beta,2013-02-03 21:36:00,
2013-02-03 16:41:00,27.2,15.9,29.83,SW,224,0.0,0.0,62,0.00,,,0.03,32767.00,ALWS 1.0-beta,2013-02-03 21:41:00,
2013-02-03 16:46:00,27.0,15.4,29.83,SW,224,0.0,0.0,61,0.00,,,0.03,32767.00,ALWS 1.0-beta,2013-02-03 21:46:00,
2013-02-03 16:51:00,26.9,15.3,29.83,SW,224,0.0,0.0,61,0.00,,,0.03,32767.00,ALWS 1.0-beta,2013-02-03 21:51:00,
2013-02-03 16:56:00,26.9,14.9,29.83,SW,223,0.0,0.0,60,0.00,,,0.03,32767.00,ALWS 1.0-beta,2013-02-03 21:56:00,
2013-02-03 17:01:00,26.5,15.6,29.83,SW,224,0.0,0.0,63,0.00,,,0.03,32767.00,ALWS 1.0-beta,2013-02-03 22:01:00,
2013-02-03 17:06:00,26.1,16.0,29.82,SW,224,0.0,0.0,65,0.00,,,0.03,32767.00,ALWS 1.0-beta,2013-02-03 22:06:00,
2013-02-03 17:11:00,25.7,16.3,29.83,SW,223,0.0,0.0,67,0.00,,,0.03,32767.00,ALWS 1.0-beta,2013-02-03 22:11:00,
2013-02-03 17:16:00,25.2,16.1,29.83,SW,224,0.0,0.0,68,0.00,,,0.03,32767.00,ALWS 1.0-beta,2013-02-03 22:16:00,
2013-02-03 17:21:00,25.1,16.0,29.83,SW,223,0.0,0.0,68,0.00,,,0.03,32767.00,ALWS 1.0-beta,2013-02-03 22:21:00,
2013-02-03 17:26:00,24.8,15.8,29.82,SW,223,0.0,0.0,68,0.00,,,0.03,32767.00,ALWS 1.0-beta,2013-02-03 22:26:00,
2013-02-03 17:31:00,24.6,15.6,29.82,SW,224,0.0,0.0,68,0.00,,,0.03,32767.00,ALWS 1.0-beta,2013-02-03 22:31:00,
2013-02-03 17:36:00,24.0,16.0,29.83,SW,224,0.0,0.0,71,0.00,,,0.03,32767.00,ALWS 1.0-beta,2013-02-03 22:36:00,
2013-02-03 17:41:00,23.8,16.1,29.82,SW,223,0.0,0.0,72,0.00,,,0.03,32767.00,ALWS 1.0-beta,2013-02-03 22:41:00,
2013-02-03 17:46:00,23.6,16.2,29.82,SW,224,0.0,0.0,73,0.00,,,0.03,32767.00,ALWS 1.0-beta,2013-02-03 22:46:00,
2013-02-03 17:51:00,23.1,16.1,29.82,SW,224,0.0,0.0,74,0.00,,,0.03,32767.00,ALWS 1.0-beta,2013-02-03 22:51:00,
2013-02-03 17:56:00,22.9,16.2,29.83,SW,224,0.0,0.0,75,0.00,,,0.03,32767.00,ALWS 1.0-beta,2013-02-03 22:56:00,
2013-02-03 18:01:00,22.9,15.9,29.83,SW,223,0.0,0.0,74,0.00,,,0.03,32767.00,ALWS 1.0-beta,2013-02-03 23:01:00,
2013-02-03 18:06:00,22.6,15.3,29.83,SW,224,0.0,0.0,73,0.00,,,0.03,32767.00,ALWS 1.0-beta,2013-02-03 23:06:00,
2013-02-03 18:11:00,22.4,15.7,29.82,SW,223,0.0,0.0,75,0.00,,,0.03,32767.00,ALWS 1.0-beta,2013-02-03 23:11:00,
2013-02-03 18:16:00,22.2,15.5,29.82,SW,224,0.0,0.0,75,0.00,,,0.03,32767.00,ALWS 1.0-beta,2013-02-03 23:16:00,
2013-02-03 18:21:00,21.7,15.3,29.82,SW,224,0.0,0.0,76,0.00,,,0.03,32767.00,ALWS 1.0-beta,2013-02-03 23:21:00,
2013-02-03 18:26:00,21.4,15.0,29.82,SW,224,0.0,0.0,76,0.00,,,0.03,32767.00,ALWS 1.0-beta,2013-02-03 23:26:00,
2013-02-03 18:31:00,21.3,15.2,29.83,SW,223,0.0,0.0,77,0.00,,,0.03,32767.00,ALWS 1.0-beta,2013-02-03 23:31:00,
2013-02-03 18:36:00,20.9,14.8,29.82,SW,224,0.0,0.0,77,0.00,,,0.03,32767.00,ALWS 1.0-beta,2013-02-03 23:36:00,
2013-02-03 18:41:00,20.6,14.6,29.82,SW,224,0.0,0.0,77,0.00,,,0.03,32767.00,ALWS 1.0-beta,2013-02-03 23:41:00,
2013-02-03 18:46:00,20.3,14.6,29.82,SW,223,0.0,0.0,78,0.00,,,0.03,32767.00,ALWS 1.0-beta,2013-02-03 23:46:00,
2013-02-03 18:51:00,19.9,14.4,29.83,SW,224,0.0,0.0,79,0.00,,,0.03,32767.00,ALWS 1.0-beta,2013-02-03 23:51:00,
2013-02-03 18:56:00,19.4,14.2,29.83,SW,224,0.0,0.0,80,0.00,,,0.03,32767.00,ALWS 1.0-beta,2013-02-03 23:56:00,
2013-02-03 19:01:00,19.1,14.2,29.83,SW,224,0.0,0.0,81,0.00,,,0.03,32767.00,ALWS 1.0-beta,2013-02-04 00:01:00,
2013-02-03 19:06:00,19.2,14.3,29.83,SW,223,0.0,0.0,81,0.00,,,0.03,32767.00,ALWS 1.0-beta,2013-02-04 00:06:00,
2013-02-03 19:11:00,19.4,14.8,29.84,SW,224,0.0,0.0,82,0.00,,,0.03,32767.00,ALWS 1.0-beta,2013-02-04 00:11:00,
2013-02-03 19:16:00,19.7,15.4,29.84,SW,224,0.0,0.0,83,0.00,,,0.03,32767.00,ALWS 1.0-beta,2013-02-04 00:16:00,
2013-02-03 19:21:00,19.7,15.7,29.84,SW,223,0.0,0.0,84,0.00,,,0.03,32767.00,ALWS 1.0-beta,2013-02-04 00:21:00,
2013-02-03 19:26:00,19.7,15.7,29.84,SW,223,0.0,0.0,84,0.00,,,0.03,32767.00,ALWS 1.0-beta,2013-02-04 00:26:00,
2013-02-03 19:31:00,20.5,15.6,29.84,SW,224,0.0,0.0,81,0.00,,,0.03,32767.00,ALWS 1.0-beta,2013-02-04 00:31:00,
2013-02-03 19:36:00,21.3,15.5,29.84,SW,224,0.0,0.0,78,0.00,,,0.03,32767.00,ALWS 1.0-beta,2013-02-04 00:36:00,
2013-02-03 19:41:00,21.0,15.8,29.84,SW,224,0.0,0.0,80,0.00,,,0.03,32767.00,ALWS 1.0-beta,2013-02-04 00:41:00,
2013-02-03 19:46:00,20.5,15.6,29.84,SW,223,0.0,0.0,81,0.00,,,0.03,32767.00,ALWS 1.0-beta,2013-02-04 00:46:00,
2013-02-03 19:51:00,20.4,15.2,29.84,SW,224,0.0,0.0,80,0.00,,,0.03,32767.00,ALWS 1.0-beta,2013-02-04 00:51:00,
2013-02-03 19:56:00,20.5,15.3,29.84,SW,223,0.0,0.0,80,0.00,,,0.03,32767.00,ALWS 1.0-beta,2013-02-04 00:56:00,
2013-02-03 20:01:00,20.7,15.2,29.84,SW,223,0.0,0.0,79,0.00,,,0.03,32767.00,ALWS 1.0-beta,2013-02-04 01:01:00,
2013-02-03 20:06:00,20.9,14.8,29.84,SW,224,0.0,0.0,77,0.00,,,0.03,32767.00,ALWS 1.0-beta,2013-02-04 01:06:00,
2013-02-03 20:11:00,21.1,14.7,29.84,SW,224,0.0,0.0,76,0.00,,,0.03,32767.00,ALWS 1.0-beta,2013-02-04 01:11:00,
2013-02-03 20:16:00,20.8,14.4,29.84,SW,223,0.0,0.0,76,0.00,,,0.03,32767.00,ALWS 1.0-beta,2013-02-04 01:16:00,
2013-02-03 20:21:00,20.6,14.6,29.84,SW,224,0.0,0.0,77,0.00,,,0.03,32767.00,ALWS 1.0-beta,2013-02-04 01:21:00,
2013-02-03 20:26:00,20.5,14.4,29.84,SW,224,0.0,0.0,77,0.00,,,0.03,32767.00,ALWS 1.0-beta,2013-02-04 01:26:00,
2013-02-03 20:31:00,20.3,14.3,29.84,SW,224,0.0,0.0,77,0.00,,,0.03,32767.00,ALWS 1.0-beta,2013-02-04 01:31:00,
2013-02-03 20:36:00,20.5,14.4,29.84,SW,224,0.0,0.0,77,0.00,,,0.03,32767.00,ALWS 1.0-beta,2013-02-04 01:36:00,
2013-02-03 20:41:00,20.5,14.4,29.84,SW,224,0.0,0.0,77,0.00,,,0.03,32767.00,ALWS 1.0-beta,2013-02-04 01:41:00,
2013-02-03 20:46:00,20.1,14.4,29.85,SW,224,0.0,0.0,78,0.00,,,0.03,32767.00,ALWS 1.0-beta,2013-02-04 01:46:00,
2013-02-03 20:51:00,19.9,14.2,29.85,SW,224,0.0,0.0,78,0.00,,,0.03,32767.00,ALWS 1.0-beta,2013-02-04 01:51:00,
2013-02-03 20:56:00,20.2,14.7,29.85,SW,223,0.0,0.0,79,0.00,,,0.03,32767.00,ALWS 1.0-beta,2013-02-04 01:56:00,
2013-02-03 21:01:00,20.6,15.1,29.85,SW,223,0.0,0.0,79,0.00,,,0.03,32767.00,ALWS 1.0-beta,2013-02-04 02:01:00,
2013-02-03 21:06:00,20.9,15.4,29.85,SW,224,0.0,0.0,79,0.00,,,0.03,32767.00,ALWS 1.0-beta,2013-02-04 02:06:00,
2013-02-03 21:11:00,21.0,14.9,29.85,SW,224,0.0,0.0,77,0.00,,,0.03,32767.00,ALWS 1.0-beta,2013-02-04 02:11:00,
2013-02-03 21:15:00,20.7,14.9,29.84,SW,224,0.0,0.0,78,0.00,,,0.03,32767.00,ALWS 1.0-beta,2013-02-04 02:15:00,
2013-02-03 21:20:00,20.3,14.8,29.84,SW,223,0.0,0.0,79,0.00,,,0.03,32767.00,ALWS 1.0-beta,2013-02-04 02:20:00,
2013-02-03 21:25:00,20.0,15.1,29.84,SW,224,0.0,0.0,81,0.00,,,0.03,32767.00,ALWS 1.0-beta,2013-02-04 02:25:00,
2013-02-03 21:30:00,19.7,14.8,29.84,SW,224,0.0,0.0,81,0.00,,,0.03,32767.00,ALWS 1.0-beta,2013-02-04 02:30:00,
2013-02-03 21:35:00,19.7,15.1,29.84,SW,223,0.0,0.0,82,0.00,,,0.03,32767.00,ALWS 1.0-beta,2013-02-04 02:35:00,
2013-02-03 21:40:00,19.7,15.1,29.84,SW,223,0.0,0.0,82,0.00,,,0.03,32767.00,ALWS 1.0-beta,2013-02-04 02:40:00,
2013-02-03 21:45:00,19.7,15.4,29.83,SW,224,0.0,0.0,83,0.00,,,0.03,32767.00,ALWS 1.0-beta,2013-02-04 02:45:00,
2013-02-03 21:50:00,19.7,15.4,29.84,SW,224,0.0,0.0,83,0.00,,,0.03,32767.00,ALWS 1.0-beta,2013-02-04 02:50:00,
2013-02-03 21:55:00,19.9,15.9,29.83,SW,224,0.0,0.0,84,0.00,,,0.03,32767.00,ALWS 1.0-beta,2013-02-04 02:55:00,
2013-02-03 22:00:00,20.0,15.9,29.83,SW,224,0.0,0.0,84,0.00,,,0.03,32767.00,ALWS 1.0-beta,2013-02-04 03:00:00,
2013-02-03 22:05:00,20.1,15.8,29.83,SW,224,0.0,0.0,83,0.00,,,0.03,32767.00,ALWS 1.0-beta,2013-02-04 03:05:00,
2013-02-03 22:10:00,20.2,15.6,29.83,SW,224,0.0,0.0,82,0.00,,,0.03,32767.00,ALWS 1.0-beta,2013-02-04 03:10:00,
2013-02-03 22:15:00,20.0,15.9,29.83,SW,224,0.0,0.0,84,0.00,,,0.03,32767.00,ALWS 1.0-beta,2013-02-04 03:15:00,
2013-02-03 22:20:00,19.9,15.9,29.83,SW,223,0.0,0.0,84,0.00,,,0.03,32767.00,ALWS 1.0-beta,2013-02-04 03:20:00,
2013-02-03 22:25:00,20.5,16.4,29.83,SW,224,0.0,0.0,84,0.00,,,0.03,32767.00,ALWS 1.0-beta,2013-02-04 03:25:00,
2013-02-03 22:30:00,21.0,16.7,29.83,SW,223,0.0,0.0,83,0.00,,,0.03,32767.00,ALWS 1.0-beta,2013-02-04 03:30:00,
2013-02-03 22:35:00,21.2,16.6,29.83,SW,224,0.0,0.0,82,0.00,,,0.03,32767.00,ALWS 1.0-beta,2013-02-04 03:35:00,
2013-02-03 22:40:00,21.3,16.7,29.83,SW,224,0.0,0.0,82,0.00,,,0.03,32767.00,ALWS 1.0-beta,2013-02-04 03:40:00,
2013-02-03 22:45:00,21.3,17.0,29.83,SW,223,0.0,0.0,83,0.00,,,0.03,32767.00,ALWS 1.0-beta,2013-02-04 03:45:00,
2013-02-03 22:50:00,21.5,16.9,29.83,SW,224,0.0,0.0,82,0.00,,,0.03,32767.00,ALWS 1.0-beta,2013-02-04 03:50:00,
2013-02-03 22:55:00,21.6,17.0,29.83,SW,224,0.0,0.0,82,0.00,,,0.03,32767.00,ALWS 1.0-beta,2013-02-04 03:55:00,
2013-02-03 23:00:00,21.8,17.2,29.83,SW,224,0.0,0.0,82,0.00,,,0.03,32767.00,ALWS 1.0-beta,2013-02-04 04:00:00,
2013-02-03 23:03:00,22.3,18.5,29.82,SW,224,0.0,0.0,85,0.00,,,0.03,32767.00,ALWS 1.0-beta,2013-02-04 04:03:00,
2013-02-03 23:05:00,22.0,17.4,29.83,SW,224,0.0,0.0,82,0.00,,,0.03,32767.00,ALWS 1.0-beta,2013-02-04 04:05:00,
2013-02-03 23:10:00,22.0,17.6,29.83,SW,223,0.0,0.0,83,0.00,,,0.03,32767.00,ALWS 1.0-beta,2013-02-04 04:10:00,
2013-02-03 23:15:00,22.1,17.7,29.82,SW,223,0.0,0.0,83,0.00,,,0.03,32767.00,ALWS 1.0-beta,2013-02-04 04:15:00,
2013-02-03 23:20:00,22.2,17.8,29.82,SW,224,0.0,0.0,83,0.00,,,0.03,32767.00,ALWS 1.0-beta,2013-02-04 04:20:00,
2013-02-03 23:25:00,22.3,18.2,29.83,SW,224,0.0,0.0,84,0.00,,,0.03,32767.00,ALWS 1.0-beta,2013-02-04 04:25:00,
2013-02-03 23:28:00,22.3,18.8,29.82,SW,223,2.0,2.0,86,0.00,,,0.03,32767.00,ALWS 1.0-beta,2013-02-04 04:28:00,
2013-02-03 23:29:00,22.3,18.8,29.82,SW,224,0.0,2.0,86,0.00,,,0.03,32767.00,ALWS 1.0-beta,2013-02-04 04:29:00,
2013-02-03 23:30:00,22.4,18.3,29.83,SW,224,0.0,0.0,84,0.00,,,0.03,32767.00,ALWS 1.0-beta,2013-02-04 04:30:00,
2013-02-03 23:31:00,22.3,18.8,29.82,SW,224,0.0,0.0,86,0.00,,,0.00,32767.00,ALWS 1.0-beta,2013-02-04 04:31:00,
2013-02-03 23:32:00,22.3,18.8,29.82,SW,224,0.0,0.0,86,0.00,,,0.00,32767.00,ALWS 1.0-beta,2013-02-04 04:32:00,
2013-02-03 23:33:00,22.3,18.8,29.82,SW,224,0.0,0.0,86,0.00,,,0.00,32767.00,ALWS 1.0-beta,2013-02-04 04:33:00,
2013-02-03 23:34:00,22.2,18.4,29.82,SW,224,0.0,0.0,85,0.00,,,0.00,32767.00,ALWS 1.0-beta,2013-02-04 04:34:00,
2013-02-03 23:35:00,22.3,18.2,29.83,SW,223,0.0,0.0,84,0.00,,,0.03,32767.00,ALWS 1.0-beta,2013-02-04 04:35:00,
2013-02-03 23:36:00,22.2,18.4,29.82,SW,223,0.0,0.0,85,0.00,,,0.00,32767.00,ALWS 1.0-beta,2013-02-04 04:36:00,
2013-02-03 23:37:00,22.2,18.4,29.82,SW,224,0.0,0.0,85,0.00,,,0.00,32767.00,ALWS 1.0-beta,2013-02-04 04:37:00,
2013-02-03 23:40:00,22.3,18.2,29.83,SW,224,0.0,0.0,84,0.00,,,0.03,32767.00,ALWS 1.0-beta,2013-02-04 04:40:00,
2013-02-03 23:45:00,22.2,18.1,29.83,SW,224,0.0,0.0,84,0.00,,,0.03,32767.00,ALWS 1.0-beta,2013-02-04 04:45:00,
2013-02-03 23:50:00,22.2,18.4,29.83,SW,224,0.0,0.0,85,0.00,,,0.03,32767.00,ALWS 1.0-beta,2013-02-04 04:50:00,
2013-02-03 23:55:00,22.2,18.7,29.82,SW,223,0.0,0.0,86,0.00,,,0.03,32767.00,ALWS 1.0-beta,2013-02-04 04:55:00,